Погода в Солнце

Россия / Рязанская область     53°43′42″N   40°06′20″E
темп.,
°C
ветер,
м/с
пор.,
м/с
влажн.,
%
обл.,
%
осадки,
мм/ч
давл.,
гПа
погр.,
м
14 апреля, ср
ср1400:00+12юв5155416 0.0 1023282
03:00+10юв49660 0.0 1023147
06:00+8ююв3770100 0.0 1023111
09:00+13юв5853100 0.0 1022320
12:00+18юв5735100 0.0 1020823
15:00+20юв67272 0.0 10191746
18:00+17юв36385 0.0 1018115
21:00+13юв485285 0.0 1018113
15 апреля, чт
чт1500:00+11юв335991 0.0 101842
03:00+9вюв336193 0.0 101836
06:00+8вюв3366100 0.0 101729
09:00+13вюв345496 0.0 1017263
12:00+17в4542100 0.0 1016735
15:00+19в5639100 0.0 10151696
18:00+17всв3451100 0.0 101482
21:00+14в3360100 0.1 101536
16 апреля, пт
пт1600:00+12вюв116799 0.0 101511
03:00+11всв337058 0.1 101631
06:00+9св3580100 0.0 101790
09:00+12всв6872100 0.3 1018414
12:00+16в675689 0.1 1018904
15:00+19в6847100 0.1 10181574
18:00+17всв7125898 0.2 1018631
21:00+13всв81577100 2.0 1020486
17 апреля, сб
сб1700:00+11всв7138282 0.6 1021453
03:00+9всв51185100 1.2 1022469
06:00+8всв71284100 0.3 1023476
09:00+10всв81163100 0.3 1024657
12:00+12всв8105061 0.0 10241013
15:00+15всв810405 0.0 10241498
18:00+13всв711413 0.0 1024990
21:00+9всв714485 0.0 1026537
18 апреля, вс
вс1800:00+7всв6145642 0.0 1026475
03:00+7всв61358100 0.0 1027470
06:00+6в61358100 0.0 1028444
09:00+8в6105371 0.0 1028662
12:00+13в673999 0.0 10281521
15:00+14в6737100 0.0 10271882
18:00+12в4747100 0.0 1027251
21:00+10всв41056100 0.0 1028315